User: anonymous   Login
Location: Helsinki
(60.1699°N, 24.9384°E)
Time: 02:59:18
(UTC+02:00)
Language:

Hubble Space Telescope - Orbit

View from above orbital plane
View from above orbital plane
View from above satellite
View from above satellite

Ground track
Ground track

The orbit data is extracted from the following two-line orbital elements,

1 20580U 90037B   23337.01878646  .00007902  00000-0  40098-3 0  9994
2 20580  28.4674 223.2547 0002743  49.5246  78.1751 15.15090725647077
Epoch (UTC): 03 December 2023 00:27:03
Eccentricity: 0.0002743
inclination: 28.4674°
perigee height: 519 km
apogee height: 522 km
right ascension of ascending node: 223.2547°
argument of perigee: 49.5246°
revolutions per day: 15.15090725
mean anomaly at epoch: 78.1751°
orbit number at epoch: 64707

The dashed part of the orbit path shows where the satellite is in the earth's shadow,  

DLR